Long Beach Weather Center

Moon Phase Calendar



Online Cameras

 


      

Current Conditions in Ocean Park
1/22/2022 2:53:04 PM

52°F
Feels Like 50
Clouds
Humidity
73%
Pressure
30.36"
Wind
1 mph (NNW)
Dew Point
43°F
UV Index
0/10 (Low)
Visibility
6 mi

Hourly Forecast

Date & Time Sat, Jan 22
2:00 PM
Sat, Jan 22
3:00 PM
Sat, Jan 22
4:00 PM
Sat, Jan 22
5:00 PM
Sat, Jan 22
6:00 PM
Sat, Jan 22
7:00 PM
Sat, Jan 22
8:00 PM
Sat, Jan 22
9:00 PM
Sat, Jan 22
10:00 PM
Sat, Jan 22
11:00 PM
Sun, Jan 23
12:00 AM
Sun, Jan 23
1:00 AM
Sun, Jan 23
2:00 AM
Sun, Jan 23
3:00 AM
Sun, Jan 23
4:00 AM
Sun, Jan 23
5:00 AM
Sun, Jan 23
6:00 AM
Sun, Jan 23
7:00 AM
Sun, Jan 23
8:00 AM
Sun, Jan 23
9:00 AM
Sun, Jan 23
10:00 AM
Sun, Jan 23
11:00 AM
Sun, Jan 23
12:00 PM
Sun, Jan 23
1:00 PM
Sun, Jan 23
2:00 PM
Sun, Jan 23
3:00 PM
Sun, Jan 23
4:00 PM
Sun, Jan 23
5:00 PM
Sun, Jan 23
6:00 PM
Sun, Jan 23
7:00 PM
Sun, Jan 23
8:00 PM
Sun, Jan 23
9:00 PM
Sun, Jan 23
10:00 PM
Sun, Jan 23
11:00 PM
Mon, Jan 24
12:00 AM
Mon, Jan 24
1:00 AM
Mon, Jan 24
2:00 AM
Mon, Jan 24
3:00 AM
Mon, Jan 24
4:00 AM
Mon, Jan 24
5:00 AM
Mon, Jan 24
6:00 AM
Mon, Jan 24
7:00 AM
Mon, Jan 24
8:00 AM
Mon, Jan 24
9:00 AM
Mon, Jan 24
10:00 AM
Mon, Jan 24
11:00 AM
Mon, Jan 24
12:00 PM
Mon, Jan 24
1:00 PM
Condition
Clouds

Clouds

Clouds

Clouds

Clouds

Clouds

Clouds

Clouds

Clouds

Clouds

Clouds

Clouds

Clouds

Clouds

Clouds

Clouds

Clouds

Clouds

Clouds

Clouds

Clouds

Clouds

Clouds

Clouds

Clouds

Clouds

Clouds

Clouds

Clouds

Clouds

Clouds

Clouds

Clouds

Clouds

Clouds

Clouds

Clouds

Clouds

Clouds

Clear

Clear

Clear

Clear

Clear

Clear

Clear

Clouds

Clouds
Temperature 52°F52°F52°F51°F49°F47°F45°F45°F45°F45°F44°F44°F44°F44°F44°F44°F44°F44°F44°F45°F46°F48°F49°F50°F50°F50°F50°F48°F48°F47°F47°F47°F47°F47°F47°F46°F46°F46°F45°F45°F44°F44°F44°F44°F45°F46°F47°F47°F
Feels Like 50°F50°F50°F49°F45°F42°F40°F40°F40°F40°F39°F40°F40°F40°F40°F40°F40°F40°F40°F41°F44°F46°F47°F47°F47°F47°F46°F45°F45°F44°F45°F47°F47°F47°F47°F46°F46°F46°F44°F44°F41°F44°F43°F42°F44°F46°F47°F46°F
Cloudiness 21%21%21%45%49%63%77%78%70%63%67%66%67%70%75%100%92%83%78%80%78%22%44%62%60%68%74%85%93%95%96%92%93%100%100%86%66%55%47%1%0%0%0%0%1%6%44%63%
Visibility 6 mi6 mi6 mi6 mi6 mi6 mi6 mi6 mi6 mi6 mi6 mi6 mi6 mi6 mi6 mi6 mi6 mi6 mi6 mi6 mi6 mi6 mi6 mi6 mi6 mi6 mi6 mi6 mi6 mi6 mi6 mi6 mi6 mi6 mi6 mi6 mi6 mi6 mi6 mi6 mi6 mi6 mi6 mi6 mi6 mi6 mi6 mi6 mi
Precipitation 0%0%0%0%0%0%0%0%0%0%0%0%0%0%0%0%0%0%0%0%0%0%0%0%0%0%0%0%0%0%0%0%0%0%0%0%0%0%0%0%0%0%0%0%0%0%0%0%
Humidity 70%73%72%74%76%76%73%71%69%69%68%68%67%67%66%66%64%63%63%62%60%62%62%64%66%68%71%74%76%76%76%75%75%77%76%78%78%79%81%82%83%82%83%82%80%78%76%77%
Dew Point 42°F43°F43°F43°F42°F40°F37°F36°F35°F35°F35°F34°F34°F34°F34°F33°F33°F32°F32°F32°F33°F36°F37°F38°F39°F40°F40°F40°F40°F40°F40°F39°F39°F40°F40°F40°F39°F40°F40°F40°F39°F38°F39°F39°F39°F40°F40°F40°F
Pressure 30.36"30.36"30.36"30.36"30.33"30.3"30.3"30.3"30.3"30.3"30.3"30.3"30.3"30.3"30.27"30.27"30.27"30.27"30.27"30.27"30.27"30.27"30.27"30.24"30.24"30.24"30.24"30.24"30.24"30.24"30.27"30.27"30.27"30.27"30.27"30.27"30.24"30.27"30.24"30.24"30.21"30.24"30.24"30.24"30.27"30.27"30.27"30.24"
Wind Speed 8.6 mph8.9 mph10.3 mph10.4 mph10.3 mph10 mph9.8 mph9.8 mph9.4 mph9.6 mph9.4 mph9 mph9.1 mph8.7 mph8.2 mph8 mph7.5 mph7 mph6.6 mph6.4 mph5.5 mph5.2 mph5.6 mph7.1 mph8.1 mph8.4 mph8.6 mph8.6 mph6.8 mph7.7 mph4.8 mph2 mph2.7 mph0.5 mph1.7 mph1.4 mph1.9 mph1.3 mph3.3 mph3.2 mph5 mph1.8 mph3.1 mph4 mph3.4 mph2.4 mph1.5 mph3.3 mph
Wind
Direction
48°
NE
38°
NE
42°
NE
44°
NE
60°
ENE
65°
ENE
66°
ENE
64°
ENE
66°
ENE
63°
ENE
63°
ENE
64°
ENE
63°
ENE
69°
ENE
66°
ENE
72°
ENE
76°
ENE
75°
ENE
68°
ENE
64°
ENE
64°
ENE
42°
NE
14°
NNE

N
353°
N
350°
N
348°
NNW
350°
N
350°
N
351°
N

N

N
338°
NNW
319°
NW
311°
NW
125°
SE
188°
S
12°
NNE
136°
SE
168°
SSE
143°
SE
142°
SE
161°
SSE
135°
SE
129°
SE
132°
SE
176°
S
236°
SW

Daily Forecast

Date High Low Precip. Humidity
Today
Jan 22

Clouds
52 °F
41 °F
0%
69%
Sunday
Jan 23

Clouds
50 °F
44 °F
0%
62%
Monday
Jan 24

Clouds
47 °F
44 °F
0%
77%
Tuesday
Jan 25

Clouds
46 °F
42 °F
0%
72%
Wednesday
Jan 26

Clouds
47 °F
42 °F
0%
73%
Thursday
Jan 27

Clear
52 °F
42 °F
0%
58%
Friday
Jan 28

Clouds
49 °F
44 °F
0%
80%
Saturday
Jan 29

Clouds
50 °F
45 °F
0%
76%
Sunday
Jan 30

Clouds
52 °F
45 °F
0%
69%
Monday
Jan 31

Clouds
51 °F
44 °F
0%
69%
Tuesday
Feb 1

Rain
46 °F
43 °F
100%
87%
Wednesday
Feb 2

Rain
45 °F
39 °F
31%
71%
Thursday
Feb 3

Rain
43 °F
37 °F
100%
68%
Friday
Feb 4

Rain
46 °F
43 °F
100%
62%
Saturday
Feb 5

Rain
49 °F
42 °F
100%
83%
Sunday
Feb 6

Rain
50 °F
48 °F
100%
97%

Temperature 8-14 Day Outlook



Precipitation 8-14 Day Outlook




Quick Links
Long Beach News
Long Beach Photos
Long Beach Videos




About Us
Contact Us
Site Map
Search Site
Advertise With Us
   
LongBeachWA.USCoast.info
THE LONG BEACH WEBSITE

Copyright 2022, Coastal Town
Privacy    |    Legal